This demonstration page uses our WeatherBlox Daily Observations layout. Learn more.

Left ArrowRight Arrow

39.29038, -76.61219

Hourly Observations for March 25, 2015

Temp ( °F °C ) Dew Point ( °F °C ) Humidity (%) Winds ( mph kmh ) Pressure ( in mb ) Visibility ( mi km ) Precip ( " mm )
12:54 am 00:54 undefined 35 1.7 22 -5.6 59 59 undefined N/A 30.39 1029 N/A 0.00 0.00
1:54 am 01:54 undefined 34 1.1 23 -5 64 64 undefined N/A 30.39 1029 N/A 0.00 0.00
2:54 am 02:54 undefined 33 0.6 23 -5 66 66 undefined N/A 30.39 1029 N/A 0.00 0.00
3:54 am 03:54 undefined 34 1.1 23 -5 64 64 undefined N/A 30.40 1029 N/A 0.00 0.00
4:54 am 04:54 undefined 34 1.1 23 -5 64 64 undefined N/A 30.39 1029 N/A 0.00 0.00
5:54 am 05:54 undefined 33 0.6 23 -5 66 66 undefined N/A 30.38 1029 N/A 0.00 0.00
6:54 am 06:54 undefined 33 0.6 24 -4.4 70 70 undefined N/A 30.39 1029 N/A 0.00 0.00
7:54 am 07:54 undefined 35 1.7 25 -3.9 67 67 undefined N/A 30.42 1030 N/A 0.00 0.00
10:54 am 10:54 undefined 37 2.8 27 -2.8 67 67 undefined N/A 30.40 1029 N/A 0.00 0.00
11:54 am 11:54 undefined 38 3.3 27 -2.8 65 65 undefined N/A 30.38 1029 N/A 0.01 0.25
12:54 pm 12:54 undefined 39 3.9 28 -2.2 65 65 undefined N/A 30.39 1029 N/A 0.00 0.00
1:54 pm 13:54 undefined 41 5 28 -2.2 60 60 undefined N/A 30.35 1028 N/A 0.00 0.00
2:54 pm 14:54 undefined 43 6.1 29 -1.7 58 58 undefined N/A 30.31 1026 N/A 0.00 0.00
3:54 pm 15:54 undefined 44 6.7 31 -0.6 60 60 undefined N/A 30.27 1025 N/A 0.00 0.00
4:54 pm 16:54 undefined 45 7.2 32 0 61 61 undefined N/A 30.24 1024 N/A 0.00 0.00
5:54 pm 17:54 undefined 45 7.2 33 0.6 63 63 undefined N/A 30.22 1024 N/A 0.00 0.00
6:54 pm 18:54 undefined 46 7.8 34 1.1 63 63 undefined N/A 30.22 1023 N/A 0.00 0.00
7:54 pm 19:54 undefined 47 8.3 35 1.7 63 63 undefined N/A 30.19 1022 N/A 0.00 0.00
8:54 pm 20:54 undefined 45 7.2 35 1.7 68 68 undefined N/A 30.18 1022 N/A 0.00 0.00
9:54 pm 21:54 undefined 45 7.2 36 2.2 71 71 undefined N/A 30.19 1023 N/A 0.00 0.00
10:54 pm 22:54 undefined 45 7.2 36 2.2 71 71 undefined N/A 30.16 1022 N/A 0.00 0.00
11:54 pm 23:54 undefined 45 7.2 36 2.2 71 71 undefined N/A 30.15 1021 N/A 0.00 0.00

Powered by AerisWeather